Location: ???? ?????
(30.0052°N, 31.2891°E)
Time: 15:17:38
(UTC+00:00)

Hubble Space Telescope - Pass Details

Date: 28 September 2024
Orbit: 503 x 507 km, 28.5° (Epoch: 12 October)

Event Time Altitude Azimuth Distance (km) Brightness Sun altitude
Exits shadow 02:42:22 23° 233° (SW) 1,100 1.9 -14.7°
Maximum altitude 02:44:30 49° 168° (SSE) 651 1.2 -14.3°
Drops below altitude 10° 02:48:17 10° 93° (E) 1,698 4.7 -13.5°
Sets 02:50:34 0° 87° (E) 2,582 6.3 -13.0°
